Theta_e
313 325 329 328 330 332 334 334 332 332 331 331 333 348 354 360 354 355 337 356 364 362 350 346 341 338 336 336 339 343 345 347 346 343 336 335 334 331 335 333 336 341 349 351 351 349 348 346 345
315 326 326 329 332 333 336 334 331 330 330 331 333 342 341 349 361 353 349 360 364 364 358 350 341 339 336 335 337 340 342 344 345 343 337 337 335 334 336 334 336 341 351 352 351 348 347 346 345
319 326 328 331 332 334 333 330 328 330 330 330 336 334 343 347 356 358 358 360 362 363 361 355 343 339 337 336 335 335 336 339 342 343 340 339 338 338 338 337 337 344 351 351 352 350 347 343 339
326 329 327 334 332 332 329 328 327 329 330 331 334 333 340 352 354 355 354 359 361 362 364 359 345 342 339 337 335 334 333 334 338 342 343 342 344 341 340 340 342 344 348 349 351 350 346 343 339
322 329 337 331 333 332 327 326 326 327 328 329 331 332 328 333 344 351 352 353 358 366 359 359 347 345 342 339 336 335 333 332 334 338 341 344 345 344 341 342 347 347 345 346 348 348 346 343 341
324 325 327 329 331 329 326 325 325 326 326 326 328 332 328 325 325 328 345 349 349 359 360 352 345 345 345 342 339 336 334 333 331 332 336 340 343 343 341 341 344 345 344 343 349 349 346 342 339
322 325 326 327 329 326 325 324 324 324 325 324 325 327 327 325 324 325 327 338 344 351 355 357 348 345 345 344 342 340 337 334 332 332 333 335 337 339 340 341 343 344 343 339 340 345 345 342 339
322 323 324 326 326 325 323 323 323 323 323 324 324 326 324 324 324 325 326 326 328 336 359 362 358 354 352 351 344 342 340 338 335 333 333 334 334 336 337 338 339 341 339 337 338 339 340 340 340
322 321 322 324 325 325 323 322 323 323 322 323 323 323 323 322 323 324 325 326 326 326 326 336 361 358 338 336 350 345 344 341 340 337 335 335 337 343 341 339 339 341 339 336 336 339 340 340 340
320 321 323 323 323 323 323 321 322 321 322 322 322 323 321 321 322 323 323 324 324 324 324 324 337 351 351 358 357 354 353 352 348 343 342 346 344 345 346 347 346 342 339 340 340 336 338 341 343
322 323 323 322 322 321 321 321 321 320 321 322 321 320 320 320 321 321 322 322 322 323 323 324 324 326 334 342 354 356 346 334 353 354 351 351 352 348 346 345 346 345 343 342 345 343 339 338 342
321 321 322 322 320 320 320 321 319 320 320 320 320 320 320 320 320 321 321 321 322 324 324 325 326 327 328 329 336 341 340 350 358 356 354 353 351 351 352 349 347 347 347 349 348 344 344 345 343
322 321 320 320 319 319 320 319 320 320 320 320 320 320 321 321 321 321 322 324 326 327 327 326 327 328 329 329 329 330 334 337 344 350 351 345 345 345 350 349 349 350 350 348 348 347 345 345 346
321 320 321 320 320 320 320 320 320 320 321 320 321 321 321 321 322 324 326 327 327 328 329 330 331 330 329 331 330 327 331 335 335 337 343 342 353 348 347 350 350 350 349 348 347 347 346 344 342
320 319 321 321 321 320 320 320 320 321 321 320 321 321 321 321 323 327 327 326 328 329 331 333 333 333 333 333 334 332 333 334 333 330 338 344 344 350 352 351 350 350 350 347 347 346 346 346 344
320 321 321 322 322 321 320 320 322 321 321 321 321 321 321 323 325 327 326 326 327 330 331 333 335 336 338 339 338 337 330 330 335 335 332 341 344 346 351 351 349 348 348 347 346 347 346 345 342
322 322 321 321 322 321 321 321 322 322 322 322 322 322 322 324 325 327 326 326 327 329 331 333 334 336 337 338 338 338 335 331 332 335 333 343 345 344 346 352 350 349 347 347 345 347 346 346 346
322 322 321 321 322 322 322 322 323 323 323 323 323 322 324 325 326 326 325 326 327 328 329 331 333 334 338 338 338 337 336 332 331 333 335 336 345 342 344 345 344 344 342 340 346 345 344 344 345
321 322 322 323 323 322 322 322 322 323 324 323 323 323 325 325 324 325 325 325 326 327 328 329 330 333 334 339 339 337 335 334 331 329 335 331 334 346 344 343 344 344 345 340 345 341 341 339 341
322 323 323 323 323 321 321 322 323 323 323 323 323 324 324 324 325 325 325 324 326 325 327 328 329 330 331 336 336 340 335 329 333 336 328 332 335 339 344 344 343 343 345 343 338 338 340 336 339
322 322 322 322 322 321 322 323 323 323 322 323 324 323 323 324 325 323 322 323 323 323 324 327 329 328 327 333 334 337 337 335 332 335 333 332 339 341 336 327 343 340 340 334 332 338 336 338 336
322 321 321 321 322 323 323 326 326 323 322 322 323 323 324 324 324 322 321 321 320 321 322 325 327 327 326 330 331 335 341 338 336 336 336 335 339 335 329 337 342 345 341 338 338 340 338 337 338
321 321 321 322 323 324 322 322 323 322 321 321 322 323 322 321 323 322 321 320 320 320 322 322 325 327 325 325 329 333 336 339 341 342 342 338 338 337 329 323 334 336 332 334 331 332 333 335 333
320 321 322 322 322 323 321 320 319 320 322 321 322 321 321 321 322 321 320 319 320 322 323 323 322 326 324 325 326 328 332 334 337 339 339 332 332 327 331 329 328 326 323 322 319 327 333 335 336
321 321 325 323 323 322 321 320 324 324 322 321 321 322 322 323 322 321 319 319 320 321 322 322 322 325 324 323 323 326 324 326 332 335 335 335 331 335 335 335 332 329 324 323 328 334 337 337 336
320 321 322 325 324 321 320 321 320 321 320 321 320 321 321 321 320 318 320 319 318 318 321 320 319 320 322 323 322 322 324 323 326 330 332 333 333 327 325 331 332 335 334 334 334 333 333 335 335
319 321 321 321 321 323 321 320 320 319 318 320 321 321 321 321 318 318 318 320 318 317 318 315 314 318 320 319 321 321 319 321 323 325 328 327 324 329 330 331 330 329 328 327 327 329 329 328 327
322 321 321 321 326 323 320 319 318 320 318 319 319 319 320 319 318 319 319 316 317 318 318 318 318 318 318 319 318 319 320 319 321 320 325 326 325 325 325 325 325 323 321 320 320 321 321 320 320
319 318 318 319 319 323 322 319 319 320 318 322 321 318 320 319 317 316 316 314 313 315 316 316 316 316 316 316 318 318 318 316 320 320 321 322 323 322 321 320 319 317 315 315 315 315 315 315 315
318 318 318 326 322 321 324 324 318 317 319 319 320 319 319 318 316 315 316 316 316 316 315 315 315 314 315 315 314 316 317 317 318 318 320 319 317 316 315 314 313 313 312 312 312 311 310 310 309
Wind_Speed
14 18 15 16 6 8 16 3 5 12 12 13 10 20 21 10 7 7 16 19 20 17 10 14 14 12 8 8 7 7 5 4 5 5 6 6 6 7 8 9 11 11 9 8 8 7 6 6 5
13 16 13 6 9 13 10 13 13 11 9 10 6 19 22 18 14 8 6 9 19 14 11 10 12 11 9 8 7 6 6 5 5 5 6 5 6 6 8 10 11 10 10 8 7 7 6 6 5
11 12 5 5 12 14 2 5 11 8 6 10 8 17 13 7 13 11 13 18 13 12 13 6 10 10 8 7 7 7 6 5 5 6 7 7 7 6 8 9 11 10 10 9 7 6 6 6 6
7 5 5 7 17 9 10 10 8 7 3 7 8 13 15 15 6 12 5 15 17 20 12 7 10 10 8 7 7 6 6 6 7 7 7 8 8 8 9 10 10 11 10 10 9 8 8 7 7
10 3 2 16 21 13 7 8 7 8 7 11 12 12 14 14 11 5 5 5 19 21 13 9 10 11 10 10 10 8 7 6 7 8 9 9 9 10 11 12 11 11 12 12 12 11 11 10 10
8 9 9 18 18 4 4 7 8 7 6 7 11 4 11 14 14 15 10 5 2 24 18 15 14 12 11 10 10 9 8 8 8 8 9 10 10 11 12 13 13 13 13 13 13 13 13 13 12
12 12 18 21 10 6 7 5 7 10 4 11 12 9 15 15 10 11 10 10 5 12 9 16 17 15 10 8 10 9 9 9 9 9 9 10 11 12 13 14 14 14 14 14 14 13 14 14 14
11 12 20 18 8 13 10 3 6 7 8 5 4 6 11 10 9 10 11 11 12 5 24 17 15 13 6 11 16 13 11 10 10 10 11 11 12 13 14 15 16 16 16 16 16 16 16 16 16
11 10 13 16 3 13 10 4 7 4 11 4 6 8 8 9 11 12 11 9 12 7 5 5 25 20 12 17 28 17 15 14 12 12 12 13 13 12 13 15 14 15 16 17 18 18 18 18 18
8 9 9 14 14 12 8 3 8 5 7 6 5 6 11 13 12 11 12 14 14 15 16 15 10 4 11 25 14 12 7 10 12 17 15 13 14 13 16 16 15 15 16 18 19 20 20 20 21
10 5 6 7 10 9 9 7 3 7 6 13 10 9 12 13 13 10 10 13 15 19 17 17 20 18 15 11 8 16 15 6 23 14 14 13 12 12 14 15 13 15 18 19 18 19 21 23 22
2 5 8 9 7 4 5 8 6 5 9 9 8 9 10 11 10 11 12 14 16 20 23 23 21 23 20 19 15 10 18 14 28 22 19 12 8 14 16 16 14 15 17 20 14 20 24 23 21
2 3 2 3 2 3 7 7 10 8 8 4 7 8 10 10 8 9 12 10 16 16 20 21 23 22 24 26 20 18 18 20 9 11 11 12 15 24 15 14 14 13 11 12 18 16 18 21 27
5 3 4 4 4 2 7 11 11 10 8 1 8 10 7 8 7 8 12 17 14 16 16 18 21 21 21 22 22 22 22 18 17 23 18 9 23 13 16 16 14 15 13 16 18 15 18 16 17
5 8 9 8 5 3 4 15 11 13 7 5 12 11 5 6 4 12 13 13 16 17 20 22 20 20 23 22 21 20 20 22 22 24 27 20 12 14 12 12 14 16 15 15 19 21 19 19 19
11 13 14 14 13 8 5 9 4 5 8 12 10 8 4 5 6 14 11 14 16 17 19 20 21 23 22 21 21 21 23 25 24 24 23 22 18 18 14 13 14 17 19 21 17 17 20 23 29
10 6 7 1 3 4 9 14 14 13 10 9 9 6 3 2 3 11 8 12 13 15 17 19 22 24 26 26 25 24 24 27 26 25 25 15 22 14 17 21 14 12 13 14 15 14 17 20 19
12 12 10 10 11 10 13 16 13 16 16 15 9 2 5 2 4 6 5 8 10 13 15 16 20 24 26 25 24 24 25 25 26 27 25 21 20 21 21 18 14 19 18 19 16 17 19 18 18
11 11 13 14 7 12 12 17 20 19 18 18 4 7 4 2 2 5 7 6 7 6 8 11 18 23 27 24 24 23 23 25 27 27 27 30 21 21 23 18 17 23 23 23 24 22 19 21 22
11 14 13 14 15 16 19 21 21 19 5 10 9 4 0 1 2 6 6 9 8 12 7 9 13 20 26 25 30 25 25 31 30 26 31 30 29 21 13 17 18 17 21 21 15 17 18 21 19
12 11 12 16 18 18 20 18 19 18 9 9 6 5 3 6 3 5 9 13 14 14 12 11 12 18 25 29 30 30 23 24 23 25 22 32 28 28 20 21 26 23 18 11 13 11 13 15 17
10 16 15 17 16 13 15 16 20 2 7 13 12 12 11 2 4 1 6 8 12 17 15 13 15 19 23 29 30 31 27 19 23 27 29 20 28 19 13 23 20 12 6 12 18 15 16 19 18
12 12 15 17 19 20 19 11 5 6 12 3 7 12 7 3 3 7 8 11 16 21 19 16 16 17 22 27 30 29 27 28 27 25 27 5 8 9 22 19 15 10 4 7 19 27 28 25 22
9 15 16 20 17 12 14 17 11 14 18 15 14 13 14 12 10 10 15 15 18 24 28 30 21 17 22 25 29 30 30 30 30 32 25 12 21 16 19 10 5 5 6 11 21 26 29 29 26
13 14 10 6 9 10 22 12 15 22 22 21 19 18 19 21 14 14 17 18 19 19 20 24 28 26 18 21 25 28 30 31 28 26 26 19 15 16 29 9 12 8 11 5 13 26 22 23 25
13 10 6 15 13 18 16 11 4 14 16 18 19 21 19 18 19 22 24 28 23 18 17 16 24 26 27 16 20 24 25 29 30 28 24 21 21 14 19 15 6 9 9 7 9 17 18 17 18
10 10 12 11 14 15 10 14 8 15 16 9 14 9 8 7 7 8 10 14 23 11 12 13 16 14 17 23 19 20 26 28 31 32 29 21 20 14 14 17 16 12 9 9 12 11 15 20 18
15 11 9 7 9 15 13 17 12 22 15 8 12 15 15 13 13 15 18 22 22 28 9 7 10 14 20 17 16 19 21 26 25 28 31 26 28 24 21 22 17 14 11 10 10 10 11 12 13
11 10 13 10 8 11 15 9 18 19 13 15 14 12 11 10 13 13 18 19 25 21 17 14 10 14 16 17 23 16 21 28 23 18 21 26 25 21 19 17 16 14 12 14 12 11 11 8 8
4 10 9 7 10 10 11 14 15 13 13 3 5 12 9 10 13 13 8 11 16 27 16 20 18 19 26 14 15 21 15 20 23 19 16 24 23 18 15 13 12 13 15 14 12 9 9 9 10
Wind_Direction
296 301 274 276 255 229 262 53 12 32 5 5 354 59 95 68 98 144 199 291 110 109 141 139 139 137 138 128 133 144 151 168 175 179 178 176 169 163 162 163 163 160 153 161 164 167 173 179 192
301 308 277 277 256 271 28 355 40 17 6 324 304 58 59 31 97 135 216 97 102 115 131 144 142 145 149 140 142 153 159 172 188 197 193 197 187 183 176 175 174 173 166 169 177 178 181 194 209
297 278 289 236 259 264 42 53 14 357 7 355 45 59 52 39 48 108 91 100 105 106 135 120 152 152 159 157 162 166 168 176 192 201 199 204 207 204 195 189 186 183 185 187 195 201 202 210 222
263 261 241 287 280 10 37 56 342 340 60 24 6 89 69 36 44 69 66 134 133 122 137 143 170 165 175 177 179 178 178 180 191 201 212 213 215 213 207 204 202 204 203 204 209 219 222 228 236
242 227 350 288 284 295 67 40 322 340 17 12 342 97 77 38 15 32 167 142 127 129 126 148 178 182 186 188 189 187 188 189 193 200 209 216 222 221 217 214 218 220 217 217 219 224 231 240 249
236 217 236 260 223 46 71 21 353 315 53 36 350 49 95 72 16 346 351 88 68 135 151 148 174 188 199 199 197 195 197 201 206 208 211 218 224 227 226 225 229 229 228 228 229 233 237 244 252
250 255 249 268 110 141 102 25 338 346 337 42 346 309 66 45 5 342 342 317 342 113 168 174 176 175 180 218 225 216 208 208 212 217 221 224 229 234 235 235 236 235 235 235 237 242 247 252 255
246 270 275 273 275 93 78 349 91 322 65 324 359 7 37 23 352 339 343 335 315 302 156 172 154 154 89 285 233 211 216 216 218 221 226 231 234 235 235 236 237 240 242 243 242 244 248 254 257
260 263 261 282 203 85 94 331 113 74 284 77 33 14 16 350 345 341 313 307 304 352 324 300 157 156 147 215 228 205 203 211 223 229 233 238 237 245 244 243 238 245 250 253 254 255 256 257 258
262 263 31 20 29 17 32 10 2 327 234 244 151 13 350 336 333 320 328 325 331 343 352 350 44 216 227 178 192 227 231 237 216 218 209 231 235 237 240 237 247 244 248 253 258 258 259 260 261
242 338 33 57 29 12 347 297 52 297 285 38 18 341 339 326 306 302 311 321 337 345 340 345 335 8 2 309 203 230 224 201 253 228 210 203 219 237 245 254 241 234 245 251 252 258 258 252 251
217 12 343 61 54 331 297 4 305 306 303 25 354 337 325 312 331 339 338 356 350 356 347 345 338 337 338 323 327 292 294 214 201 215 211 184 231 251 248 261 241 239 239 244 235 240 251 249 248
89 119 285 102 219 257 359 280 279 295 294 67 310 305 320 318 338 347 1 7 10 351 351 339 338 337 324 319 311 307 314 304 285 203 206 215 209 221 247 251 258 264 271 259 236 242 265 244 237
42 284 207 176 220 242 251 284 287 255 238 228 291 301 320 333 316 353 15 15 355 3 348 354 336 324 313 313 311 301 292 291 279 292 272 244 194 197 228 249 259 257 266 273 283 296 295 297 273
259 253 207 215 206 267 16 279 289 211 187 250 269 287 347 315 345 44 21 1 7 358 357 352 334 332 327 317 309 301 293 280 274 267 263 229 221 191 222 231 252 251 257 252 263 279 286 283 275
235 230 241 180 188 155 189 289 342 187 199 248 270 284 314 276 26 50 8 16 9 9 3 351 345 337 333 326 313 299 287 276 276 274 277 235 220 233 234 229 240 253 257 255 249 259 272 281 281
208 270 353 148 205 163 246 284 305 306 284 282 273 257 218 310 20 64 2 19 12 16 9 360 355 348 338 326 313 302 288 278 277 275 274 238 225 218 205 208 216 223 254 256 252 259 262 267 272
346 342 330 310 314 334 313 297 297 308 294 280 293 265 120 36 45 57 354 14 8 12 7 3 359 350 341 331 321 309 295 287 266 261 260 268 227 222 217 209 217 236 239 251 248 252 255 256 268
319 321 308 295 344 326 303 301 302 298 286 273 305 105 91 92 28 47 15 354 4 353 9 12 6 356 345 343 333 321 305 295 271 262 245 248 248 213 214 211 222 230 238 250 253 254 264 267 262
302 301 306 327 341 328 307 296 285 281 2 70 66 39 121 178 3 13 350 347 2 350 14 35 22 6 352 342 333 307 296 294 283 289 246 245 246 232 220 205 231 233 241 249 252 245 267 281 282
305 334 336 314 317 305 296 308 308 297 129 126 148 152 227 220 86 19 11 359 357 345 342 24 26 17 3 345 341 341 317 305 286 283 277 235 233 221 217 249 246 241 252 277 298 318 313 295 284
317 352 330 318 314 305 305 291 287 18 173 204 184 189 213 115 134 227 5 349 342 330 334 30 17 21 9 352 348 348 332 297 299 299 285 262 226 209 208 269 242 254 289 344 330 313 312 301 294
306 339 309 288 285 284 278 266 57 205 318 320 200 209 129 286 252 42 301 359 344 358 354 26 8 21 18 5 348 356 353 346 327 323 342 64 153 207 280 319 309 248 301 304 331 317 303 298 290
268 278 296 288 274 276 1 356 325 334 352 343 21 18 16 19 35 10 360 353 15 16 13 360 360 7 19 15 349 359 2 358 347 348 347 355 337 278 254 180 187 105 342 286 269 288 288 289 290
340 325 310 308 315 304 355 338 36 28 31 22 9 11 6 7 3 356 346 8 350 9 6 10 358 359 11 12 348 351 7 7 354 356 360 12 1 2 36 83 359 341 260 302 281 290 288 292 291
296 296 305 310 317 308 308 292 92 50 31 31 25 20 20 9 6 1 4 345 326 355 30 12 13 7 329 14 355 348 360 7 12 356 7 19 22 23 19 356 3 27 32 350 296 290 302 308 308
314 309 323 315 297 295 296 307 0 45 6 37 61 32 14 18 11 351 334 334 312 351 52 31 21 353 343 351 351 349 356 7 15 7 353 11 12 24 25 18 20 3 2 335 315 312 298 295 302
238 252 287 280 281 287 292 316 312 359 3 13 353 11 17 12 351 342 340 1 10 348 9 0 0 351 347 350 345 344 349 355 360 10 352 357 1 359 360 356 351 352 2 349 342 320 315 314 317
316 300 310 323 313 306 303 296 341 315 11 28 8 353 29 10 357 344 356 5 15 318 325 338 346 335 330 340 338 350 342 353 2 5 341 353 352 348 2 352 348 352 356 6 0 352 345 350 3
322 299 300 278 280 276 288 287 297 322 31 7 315 47 39 32 20 2 343 349 301 281 348 329 344 338 344 324 335 340 338 341 351 355 355 350 335 342 354 347 350 360 12 14 18 17 18 28 33